Flight Track Log - Related Links

Times and Time Zones

All times are in EDT time to prevent confusion due to time zone crossing. See the N101MA flight status page for this flight to view local times or setup timezone preferences in your user account.


Time Position Orientation Groundspeed Altitude Reporting Facility
EDT Latitude Longitude Course Direction KTS MPH feet Rate Location/Type
Wed 12:58:31 PM 41.0333 -73.7167 323° Northwest 120 138 1,300  Level New York TRACON
Wed 12:59:31 PM 41.0667 -73.7500 323° Northwest 126 145 2,100 684 Climbing New York TRACON
Wed 01:00:25 PM 41.0833 -73.7667 323° Northwest 127 146 2,600 750 Climbing New York TRACON
Wed 01:01:31 PM 41.1000 -73.8167 294° West 118 136 3,600 762 Climbing New York TRACON
Wed 01:02:31 PM 41.1333 -73.8500 323° Northwest 132 152 4,200 789 Climbing New York TRACON
Wed 01:03:25 PM 41.1500 -73.8667 323° Northwest 112 129 5,100 842 Climbing New York TRACON
Wed 01:04:25 PM 41.1667 -73.9000 304° West 120 138 5,800 762 Climbing New York TRACON
Wed 01:05:31 PM 41.2000 -73.9333 323° Northwest 119 137 6,700 714 Climbing New York TRACON
Wed 01:06:31 PM 41.2000 -73.9833 270° West 117 135 7,300 550 Climbing New York TRACON
Wed 01:07:31 PM 41.1833 -74.0333 246° West 127 146 7,800 350 Climbing New York TRACON
Wed 01:08:31 PM 41.1833 -74.0667 270° West 138 159 8,000 150 Climbing New York TRACON
Wed 01:09:31 PM 41.1667 -74.1333 252° West 158 182 8,100 53 Climbing New York TRACON
Wed 01:10:25 PM 41.1500 -74.1833 246° West 152 175 8,100  Level New York TRACON
Wed 01:11:25 PM 41.1333 -74.2333 246° West 154 177 8,100 -50 Level New York TRACON
Wed 01:12:25 PM 41.1333 -74.2833 270° West 152 175 8,000 -48 Descending New York TRACON
Wed 01:13:31 PM 41.1167 -74.3500 252° West 157 181 8,000  Level New York TRACON
Wed 01:14:25 PM 41.1000 -74.4000 246° West 157 181 8,000  Level New York TRACON
Wed 01:15:25 PM 41.0833 -74.4500 246° West 157 181 8,000  Level New York TRACON
Wed 01:16:25 PM 41.0833 -74.5000 270° West 155 178 8,000  Level New York TRACON
Wed 01:17:25 PM 41.0500 -74.5500 229° Southwest 155 178 8,000  Level New York TRACON
Wed 01:18:25 PM 41.0167 -74.5667 201° Southwest 157 181 8,000  Level New York TRACON
Wed 01:19:31 PM 40.9667 -74.5833 194° South 154 177 8,000  Level New York TRACON
Wed 01:20:31 PM 40.9333 -74.6000 201° Southwest 156 180 8,000 -53 Level New York TRACON
Wed 01:21:25 PM 40.8833 -74.6167 194° South 159 183 7,900 -421 Descending New York TRACON
Wed 01:22:25 PM 40.8500 -74.6500 217° Southwest 180 207 7,200 -650 Descending New York TRACON
Wed 01:23:25 PM 40.8167 -74.7000 229° Southwest 183 211 6,600 -600 Descending New York TRACON
Wed 01:24:25 PM 40.7833 -74.7500 229° Southwest 178 205 6,000 -600 Descending New York TRACON
Wed 01:25:25 PM 40.7500 -74.7833 217° Southwest 179 206 5,400 -550 Descending New York TRACON
Wed 01:26:25 PM 40.7000 -74.8167 207° Southwest 181 208 4,900 -542 Descending New York TRACON
Wed 01:28:00 PM 40.6333 -74.8333 191° South 172 198 4,000 -310 Descending Philadelphia TRACON
Wed 01:29:00 PM 40.5833 -74.8500 194° South 159 183 4,100  Climbing Philadelphia TRACON
Wed 01:29:54 PM 40.5500 -74.8500 180° South 157 181 4,000 -48 Descending Philadelphia TRACON
Wed 01:31:06 PM 40.5000 -74.8667 194° South 153 176 4,000  Level Philadelphia TRACON
Wed 01:32:06 PM 40.4667 -74.9000 217° Southwest 147 169 4,000  Level Philadelphia TRACON
Wed 01:33:06 PM 40.4333 -74.9333 217° Southwest 148 170 4,000 -250 Level Philadelphia TRACON
Wed 01:34:06 PM 40.3833 -74.9500 194° South 163 188 3,500 -474 Descending Philadelphia TRACON
Wed 01:35:00 PM 40.3500 -74.9833 217° Southwest 169 194 3,100 -333 Descending Philadelphia TRACON
Wed 01:35:54 PM 40.3167 -75.0167 217° Southwest 163 188 2,900 -474 Descending Philadelphia TRACON
Wed 01:36:54 PM 40.2833 -75.0500 217° Southwest 158 182 2,200 -450 Descending Philadelphia TRACON
Wed 01:37:54 PM 40.2500 -75.0833 217° Southwest 150 173 2,000 -100 Descending Philadelphia TRACON
Wed 01:38:54 PM 40.2167 -75.1167 217° Southwest 141 162 2,000  Level Philadelphia TRACON
Wed 01:40:00 PM 40.2000 -75.1667 246° West 128 147 2,000  Level Philadelphia TRACON

Login

Don't have an account? Register now (free) for customized features, flight alerts, and more!